User: anonymous   Login
Location: Alafon
(8.4500°N, 4.2333°E)
Time: 02:38:14
(UTC+00:00)
Language:

Tiangong - Orbit

View from above orbital plane
View from above orbital plane
View from above satellite
View from above satellite

Ground track
Ground track

The orbit data is extracted from the following two-line orbital elements,

1 48274U 21035A   21205.90104360  .00009013  00000-0  10127-3 0  9996
2 48274  41.4705  53.0100 0008462 230.8203 260.4576 15.62669403 13595
Epoch (UTC): 24 July 2021 21:37:30
Eccentricity: 0.0008462
inclination: 41.4705°
perigee height: 374 km
apogee height: 385 km
right ascension of ascending node: 53.0100°
argument of perigee: 230.8203°
revolutions per day: 15.62669403
mean anomaly at epoch: 260.4576°
orbit number at epoch: 1359

The dashed part of the orbit path shows where the satellite is in the earth's shadow,  

DLR